| time (UTC) | temp F | wind direction | speed knots | gust knots | rain 1hr in | rain 24hr in | rain mn in | humidity % | barometer mb |
| 20260507160045 | 61 | 43 | 3.5 | 10.4 | 0.00 | 0.02 | 0.02 | 90 | 1017.3 |
| 20260507155537 | 61 | 43 | 5.2 | 12.2 | 0.00 | 0.02 | 0.02 | 90 | 1017.4 |
| 20260507155035 | 61 | 78 | 5.2 | 12.2 | 0.00 | 0.02 | 0.02 | 90 | 1017.3 |
| 20260507154550 | 61 | 60 | 6.1 | 12.2 | 0.01 | 0.02 | 0.02 | 90 | 1016.9 |
| 20260507154037 | 61 | 58 | 6.1 | 12.2 | 0.01 | 0.02 | 0.02 | 90 | 1017.2 |
| 20260507153535 | 61 | 52 | 7.8 | 13.9 | 0.01 | 0.02 | 0.02 | 90 | 1016.8 |
| 20260507153056 | 61 | 15 | 6.1 | 13.9 | 0.01 | 0.02 | 0.02 | 90 | 1016.8 |
| 20260507152539 | 61 | 30 | 8.7 | 15.6 | 0.01 | 0.02 | 0.02 | 90 | 1016.5 |
| 20260507152035 | 62 | 55 | 7.8 | 15.6 | 0.01 | 0.02 | 0.02 | 90 | 1016.4 |
| 20260507151546 | 62 | 29 | 6.1 | 13.0 | 0.01 | 0.02 | 0.02 | 89 | 1016.6 |
| 20260507151038 | 62 | 5 | 7.8 | 13.0 | 0.01 | 0.02 | 0.02 | 90 | 1016.3 |
| 20260507150535 | 62 | 14 | 7.8 | 13.0 | 0.01 | 0.02 | 0.02 | 89 | 1016.4 |
| 20260507150055 | 63 | 30 | 7.0 | 13.0 | 0.01 | 0.02 | 0.02 | 89 | 1016.4 |
| 20260507145536 | 63 | 14 | 7.8 | 13.0 | 0.01 | 0.02 | 0.02 | 89 | 1016.2 |
| 20260507145036 | 64 | 360 | 4.3 | 10.4 | 0.01 | 0.02 | 0.02 | 89 | 1016.3 |
| 20260507144548 | 64 | 28 | 4.3 | 10.4 | 0.00 | 0.01 | 0.01 | 89 | 1016.3 |
| 20260507144036 | 65 | 5 | 5.2 | 9.6 | 0.00 | 0.01 | 0.01 | 88 | 1016.2 |
| 20260507143535 | 65 | 33 | 4.3 | 10.4 | 0.00 | 0.01 | 0.01 | 88 | 1016.2 |
| 20260507143049 | 65 | 44 | 5.2 | 10.4 | 0.00 | 0.01 | 0.01 | 87 | 1015.9 |
| 20260507142535 | 66 | 46 | 3.5 | 7.8 | 0.00 | 0.01 | 0.01 | 88 | 1015.8 |
| 20260507142034 | 66 | 32 | 3.5 | 8.7 | 0.01 | 0.01 | 0.01 | 87 | 1015.8 |
| 20260507141612 | 66 | 87 | 3.5 | 9.6 | 0.01 | 0.01 | 0.01 | 87 | 1015.6 |
| 20260507141039 | 67 | 84 | 4.3 | 9.6 | 0.01 | 0.01 | 0.01 | 87 | 1015.2 |
| 20260507140535 | 67 | 50 | 4.3 | 9.6 | 0.01 | 0.01 | 0.01 | 87 | 1015.4 |
| 20260507140048 | 67 | 40 | 2.6 | 7.0 | 0.01 | 0.01 | 0.01 | 86 | 1015.7 |
| 20260507135535 | 67 | 44 | 2.6 | 7.0 | 0.01 | 0.01 | 0.01 | 86 | 1015.7 |
| 20260507135035 | 68 | 16 | 1.7 | 6.1 | 0.01 | 0.01 | 0.01 | 85 | 1015.6 |
| 20260507134559 | 68 | 33 | 0.9 | 4.3 | 0.01 | 0.01 | 0.01 | 85 | 1015.6 |
| 20260507134037 | 68 | 40 | 1.7 | 4.3 | 0.01 | 0.01 | 0.01 | 85 | 1015.6 |
| 20260507133535 | 68 | 40 | 2.6 | 4.3 | 0.01 | 0.01 | 0.01 | 84 | 1015.4 |
| 20260507133056 | 68 | 0 | 0.0 | 3.5 | 0.01 | 0.01 | 0.01 | 84 | 1015.4 |
| 20260507132535 | 68 | 333 | 1.7 | 3.5 | 0.01 | 0.01 | 0.01 | 84 | 1015.0 |
| 20260507132035 | 68 | 0 | 0.0 | 4.3 | 0.00 | 0.00 | 0.00 | 84 | 1015.3 |
| 20260507131550 | 68 | 134 | 0.9 | 4.3 | 0.00 | 0.00 | 0.00 | 84 | 1015.3 |
| 20260507131036 | 68 | 164 | 1.7 | 4.3 | 0.00 | 0.00 | 0.00 | 84 | 1015.4 |
| 20260507130536 | 68 | 50 | 0.0 | 4.3 | 0.00 | 0.00 | 0.00 | 83 | 1015.4 |
| 20260507130052 | 68 | 46 | 1.7 | 3.5 | 0.00 | 0.00 | 0.00 | 83 | 1015.0 |
| 20260507125536 | 68 | 0 | 0.9 | 2.6 | 0.00 | 0.00 | 0.00 | 83 | 1015.3 |
| 20260507125037 | 68 | 140 | 0.0 | 2.6 | 0.00 | 0.00 | 0.00 | 83 | 1015.2 |
| 20260507124549 | 68 | 0 | 0.0 | 2.6 | 0.00 | 0.00 | 0.00 | 83 | 1015.0 |
| 20260507124035 | 68 | 140 | 1.7 | 2.6 | 0.00 | 0.00 | 0.00 | 83 | 1014.9 |
| 20260507123535 | 68 | 0 | 0.0 | 2.6 | 0.00 | 0.00 | 0.00 | 83 | 1014.8 |
| 20260507123054 | 68 | 140 | 0.9 | 3.5 | 0.00 | 0.00 | 0.00 | 83 | 1014.6 |
| 20260507122535 | 68 | 140 | 1.7 | 3.5 | 0.00 | 0.00 | 0.00 | 82 | 1014.6 |
| 20260507122035 | 68 | 140 | 0.9 | 2.6 | 0.00 | 0.00 | 0.00 | 82 | 1014.5 |
| 20260507121552 | 68 | 0 | 0.0 | 0.0 | 0.00 | 0.00 | 0.00 | 82 | 1014.4 |
| 20260507121035 | 68 | 0 | 0.0 | 0.9 | 0.00 | 0.00 | 0.00 | 82 | 1014.5 |
| 20260507120537 | 69 | 0 | 0.0 | 2.6 | 0.00 | 0.00 | 0.00 | 81 | 1014.5 |
| 20260507115535 | 69 | 360 | 0.9 | 5.2 | 0.00 | 0.00 | 0.00 | 80 | 1014.3 |
| 20260507115037 | 69 | 0 | 1.7 | 5.2 | 0.00 | 0.00 | 0.00 | 80 | 1014.2 |
| 20260507114558 | 69 | 28 | 2.6 | 4.3 | 0.00 | 0.00 | 0.00 | 79 | 1014.0 |
| 20260507114034 | 69 | 58 | 0.9 | 3.5 | 0.00 | 0.00 | 0.00 | 79 | 1014.2 |
| 20260507113538 | 69 | 58 | 1.7 | 3.5 | 0.00 | 0.00 | 0.00 | 79 | 1014.2 |
| 20260507113051 | 69 | 0 | 0.9 | 2.6 | 0.00 | 0.00 | 0.00 | 79 | 1014.2 |
| 20260507112534 | 69 | 58 | 0.9 | 4.3 | 0.00 | 0.00 | 0.00 | 79 | 1014.2 |
| 20260507112036 | 69 | 58 | 1.7 | 7.0 | 0.00 | 0.00 | 0.00 | 79 | 1014.1 |
| 20260507111548 | 69 | 60 | 1.7 | 7.0 | 0.00 | 0.00 | 0.00 | 79 | 1013.8 |
| 20260507111039 | 69 | 101 | 3.5 | 7.0 | 0.00 | 0.00 | 0.00 | 79 | 1013.5 |
| 20260507110537 | 69 | 76 | 2.6 | 6.1 | 0.00 | 0.00 | 0.00 | 79 | 1013.6 |
| 20260507110047 | 69 | 60 | 2.6 | 7.0 | 0.00 | 0.00 | 0.00 | 79 | 1013.5 |
| 20260507105535 | 69 | 86 | 3.5 | 7.0 | 0.00 | 0.00 | 0.00 | 79 | 1013.5 |
| 20260507105035 | 69 | 99 | 2.6 | 5.2 | 0.00 | 0.00 | 0.00 | 79 | 1013.8 |
| 20260507104548 | 69 | 46 | 1.7 | 7.0 | 0.00 | 0.00 | 0.00 | 78 | 1013.8 |
| 20260507104035 | 69 | 86 | 3.5 | 7.0 | 0.00 | 0.00 | 0.00 | 78 | 1013.8 |
| 20260507103535 | 69 | 96 | 2.6 | 7.8 | 0.00 | 0.00 | 0.00 | 78 | 1013.4 |
| 20260507103049 | 69 | 107 | 3.5 | 7.8 | 0.00 | 0.00 | 0.00 | 78 | 1013.5 |
| 20260507102536 | 69 | 88 | 3.5 | 7.8 | 0.00 | 0.00 | 0.00 | 78 | 1013.4 |
| 20260507102036 | 69 | 80 | 3.5 | 7.8 | 0.00 | 0.00 | 0.00 | 78 | 1013.2 |
| 20260507101542 | 69 | 70 | 4.3 | 6.1 | 0.00 | 0.00 | 0.00 | 78 | 1013.1 |
| 20260507101037 | 69 | 134 | 2.6 | 6.1 | 0.00 | 0.00 | 0.00 | 78 | 1013.0 |
| 20260507100540 | 69 | 81 | 3.5 | 6.1 | 0.00 | 0.00 | 0.00 | 78 | 1013.1 |
| 20260507100043 | 69 | 79 | 3.5 | 6.1 | 0.00 | 0.00 | 0.00 | 78 | 1013.1 |
| 20260507095536 | 69 | 58 | 2.6 | 6.1 | 0.00 | 0.00 | 0.00 | 78 | 1013.4 |
| 20260507095034 | 69 | 74 | 2.6 | 6.1 | 0.00 | 0.00 | 0.00 | 78 | 1013.3 |
| 20260507094553 | 69 | 105 | 0.9 | 6.1 | 0.00 | 0.00 | 0.00 | 78 | 1013.6 |
| 20260507094035 | 69 | 105 | 0.9 | 7.0 | 0.00 | 0.00 | 0.00 | 78 | 1013.3 |
| 20260507093535 | 69 | 98 | 3.5 | 7.0 | 0.00 | 0.00 | 0.00 | 78 | 1013.3 |
| 20260507093046 | 69 | 105 | 0.9 | 4.3 | 0.00 | 0.00 | 0.00 | 78 | 1013.3 |
| 20260507092535 | 69 | 87 | 1.7 | 7.0 | 0.00 | 0.00 | 0.00 | 79 | 1013.3 |
| 20260507092035 | 69 | 65 | 2.6 | 7.0 | 0.00 | 0.00 | 0.00 | 78 | 1013.1 |
| 20260507091546 | 69 | 82 | 2.6 | 5.2 | 0.00 | 0.00 | 0.00 | 79 | 1013.2 |
| 20260507091035 | 69 | 105 | 1.7 | 5.2 | 0.00 | 0.00 | 0.00 | 79 | 1013.2 |
| 20260507090534 | 69 | 113 | 1.7 | 5.2 | 0.00 | 0.00 | 0.00 | 79 | 1013.3 |
| 20260507090045 | 69 | 39 | 1.7 | 3.5 | 0.00 | 0.00 | 0.00 | 78 | 1013.1 |
| 20260507085536 | 69 | 39 | 0.9 | 2.6 | 0.00 | 0.00 | 0.00 | 78 | 1013.1 |
| 20260507085035 | 69 | 39 | 0.9 | 3.5 | 0.00 | 0.00 | 0.00 | 78 | 1013.2 |
| 20260507084542 | 69 | 39 | 1.7 | 5.2 | 0.00 | 0.00 | 0.00 | 78 | 1013.2 |
| 20260507084035 | 69 | 39 | 1.7 | 5.2 | 0.00 | 0.00 | 0.00 | 78 | 1013.5 |
| 20260507083535 | 69 | 80 | 2.6 | 5.2 | 0.00 | 0.00 | 0.00 | 78 | 1013.6 |
| 20260507083045 | 69 | 71 | 2.6 | 6.1 | 0.00 | 0.00 | 0.00 | 78 | 1013.4 |
| 20260507082536 | 69 | 101 | 1.7 | 6.1 | 0.00 | 0.00 | 0.00 | 78 | 1013.3 |
| 20260507082035 | 69 | 105 | 1.7 | 7.0 | 0.00 | 0.00 | 0.00 | 77 | 1013.3 |
| 20260507081548 | 69 | 86 | 2.6 | 8.7 | 0.00 | 0.00 | 0.00 | 77 | 1013.3 |
| 20260507081035 | 69 | 61 | 3.5 | 8.7 | 0.00 | 0.00 | 0.00 | 77 | 1013.1 |
| 20260507080539 | 69 | 74 | 3.5 | 7.0 | 0.00 | 0.00 | 0.00 | 76 | 1013.5 |
| 20260507080056 | 69 | 66 | 3.5 | 7.0 | 0.00 | 0.00 | 0.00 | 76 | 1013.5 |
| 20260507075535 | 69 | 79 | 2.6 | 6.1 | 0.00 | 0.00 | 0.00 | 76 | 1013.6 |
| 20260507075035 | 69 | 92 | 2.6 | 7.0 | 0.00 | 0.00 | 0.00 | 76 | 1013.8 |
| 20260507074548 | 70 | 94 | 3.5 | 7.0 | 0.00 | 0.00 | 0.00 | 76 | 1013.7 |
| 20260507074037 | 70 | 82 | 3.5 | 6.1 | 0.00 | 0.00 | 0.00 | 76 | 1013.8 |
| 20260507073535 | 70 | 103 | 1.7 | 5.2 | 0.00 | 0.00 | 0.00 | 76 | 1013.8 |
| 20260507073107 | 70 | 93 | 2.6 | 6.1 | 0.00 | 0.00 | 0.00 | 75 | 1013.9 |
| 20260507072535 | 70 | 111 | 1.7 | 7.8 | 0.00 | 0.00 | 0.00 | 75 | 1013.9 |
| 20260507072035 | 70 | 88 | 3.5 | 7.8 | 0.00 | 0.00 | 0.00 | 75 | 1013.8 |
| 20260507071546 | 70 | 100 | 2.6 | 7.0 | 0.00 | 0.00 | 0.00 | 75 | 1013.7 |
| 20260507071035 | 70 | 106 | 2.6 | 7.0 | 0.00 | 0.00 | 0.00 | 75 | 1013.8 |
| 20260507070535 | 70 | 126 | 2.6 | 7.0 | 0.00 | 0.00 | 0.00 | 75 | 1013.9 |
| 20260507070051 | 70 | 98 | 2.6 | 5.2 | 0.00 | 0.00 | 0.00 | 75 | 1013.9 |
| 20260507065536 | 70 | 99 | 2.6 | 7.8 | 0.00 | 0.00 | 0.00 | 74 | 1013.9 |
| 20260507065035 | 70 | 84 | 3.5 | 8.7 | 0.00 | 0.00 | 0.00 | 74 | 1013.8 |
| 20260507064609 | 71 | 49 | 3.5 | 8.7 | 0.00 | 0.00 | 0.00 | 73 | 1013.8 |
| 20260507064036 | 71 | 81 | 2.6 | 8.7 | 0.00 | 0.00 | 0.00 | 73 | 1013.8 |
| 20260507063536 | 71 | 99 | 3.5 | 8.7 | 0.00 | 0.00 | 0.00 | 73 | 1013.8 |
| 20260507063056 | 71 | 86 | 4.3 | 7.8 | 0.00 | 0.00 | 0.00 | 73 | 1013.8 |
| 20260507062535 | 71 | 87 | 4.3 | 9.6 | 0.00 | 0.00 | 0.00 | 73 | 1013.7 |
| 20260507062035 | 71 | 84 | 4.3 | 9.6 | 0.00 | 0.00 | 0.00 | 73 | 1013.6 |
| 20260507061549 | 71 | 59 | 5.2 | 9.6 | 0.00 | 0.00 | 0.00 | 73 | 1013.7 |
| 20260507061036 | 72 | 80 | 3.5 | 7.8 | 0.00 | 0.00 | 0.00 | 73 | 1013.5 |
| 20260507060535 | 72 | 98 | 3.5 | 7.8 | 0.00 | 0.00 | 0.00 | 73 | 1013.5 |
| 20260507060052 | 72 | 89 | 3.5 | 7.8 | 0.00 | 0.00 | 0.00 | 73 | 1013.6 |
| 20260507055535 | 72 | 96 | 2.6 | 6.1 | 0.00 | 0.00 | 0.00 | 74 | 1013.4 |
| 20260507055035 | 72 | 118 | 3.5 | 6.1 | 0.00 | 0.00 | 0.00 | 74 | 1013.5 |
| 20260507054550 | 72 | 128 | 1.7 | 6.1 | 0.00 | 0.00 | 0.00 | 74 | 1013.4 |
| 20260507054035 | 72 | 132 | 2.6 | 7.8 | 0.00 | 0.00 | 0.00 | 74 | 1013.5 |
| 20260507053538 | 73 | 94 | 3.5 | 7.8 | 0.00 | 0.00 | 0.00 | 73 | 1013.2 |
| 20260507053049 | 73 | 131 | 3.5 | 7.0 | 0.00 | 0.00 | 0.00 | 73 | 1013.1 |
| 20260507052534 | 73 | 149 | 3.5 | 6.1 | 0.00 | 0.00 | 0.00 | 73 | 1013.1 |
| 20260507052035 | 73 | 111 | 3.5 | 6.1 | 0.00 | 0.00 | 0.00 | 73 | 1013.2 |
| 20260507051552 | 73 | 112 | 3.5 | 7.8 | 0.00 | 0.00 | 0.00 | 72 | 1013.2 |
| 20260507051039 | 73 | 82 | 3.5 | 8.7 | 0.00 | 0.00 | 0.00 | 72 | 1013.1 |
| 20260507050536 | 73 | 102 | 4.3 | 8.7 | 0.00 | 0.00 | 0.00 | 72 | 1013.1 |
| 20260507050053 | 73 | 81 | 3.5 | 7.0 | 0.00 | 0.00 | 0.00 | 72 | 1013.1 |
| 20260507045535 | 73 | 84 | 2.6 | 7.0 | 0.00 | 0.00 | 0.00 | 72 | 1013.1 |
| 20260507045035 | 73 | 73 | 1.7 | 3.5 | 0.00 | 0.00 | 0.00 | 72 | 1013.2 |
| 20260507044553 | 74 | 73 | 0.9 | 3.5 | 0.00 | 0.00 | 0.00 | 71 | 1013.0 |
| 20260507044038 | 74 | 360 | 0.0 | 1.7 | 0.00 | 0.00 | 0.00 | 71 | 1013.1 |
| 20260507043535 | 74 | 360 | 0.9 | 1.7 | 0.00 | 0.00 | 0.00 | 70 | 1012.9 |
| 20260507043051 | 74 | 0 | 0.0 | 1.7 | 0.00 | 0.00 | 0.00 | 70 | 1013.2 |
| 20260507042535 | 74 | 0 | 0.0 | 2.6 | 0.00 | 0.00 | 0.00 | 69 | 1013.0 |
| 20260507042036 | 74 | 0 | 0.9 | 3.5 | 0.00 | 0.00 | 0.00 | 69 | 1012.7 |
| 20260507041548 | 74 | 360 | 1.7 | 3.5 | 0.00 | 0.00 | 0.00 | 69 | 1012.3 |
| 20260507041037 | 75 | 56 | 1.7 | 3.5 | 0.00 | 0.00 | 0.00 | 69 | 1012.2 |
| 20260507040534 | 75 | 56 | 1.7 | 3.5 | 0.00 | 0.00 | 0.00 | 68 | 1012.1 |
| 20260507040104 | 75 | 56 | 0.9 | 6.1 | 0.00 | 0.00 | 0.00 | 68 | 1012.2 |
| 20260507035534 | 75 | 56 | 0.9 | 6.1 | 0.00 | 0.00 | 0.00 | 67 | 1011.9 |
| 20260507035034 | 75 | 40 | 2.6 | 9.6 | 0.00 | 0.00 | 0.00 | 67 | 1011.4 |
| 20260507034605 | 75 | 39 | 3.5 | 9.6 | 0.00 | 0.00 | 0.00 | 66 | 1011.3 |
| 20260507034034 | 76 | 63 | 3.5 | 9.6 | 0.00 | 0.00 | 0.00 | 66 | 1011.1 |
| 20260507033536 | 76 | 30 | 5.2 | 10.4 | 0.00 | 0.00 | 0.00 | 65 | 1011.0 |
| 20260507033104 | 76 | 44 | 4.3 | 10.4 | 0.00 | 0.00 | 0.00 | 65 | 1011.1 |
| 20260507032537 | 76 | 51 | 4.3 | 10.4 | 0.00 | 0.00 | 0.00 | 64 | 1011.0 |
| 20260507032035 | 76 | 71 | 6.1 | 12.2 | 0.00 | 0.00 | 0.00 | 63 | 1010.7 |
| 20260507031548 | 76 | 32 | 7.8 | 12.2 | 0.00 | 0.00 | 0.00 | 63 | 1010.7 |
| 20260507031035 | 77 | 39 | 7.0 | 11.3 | 0.00 | 0.00 | 0.00 | 62 | 1010.7 |
| 20260507030538 | 77 | 59 | 4.3 | 9.6 | 0.00 | 0.00 | 0.00 | 61 | 1011.0 |
| 20260507030046 | 77 | 57 | 4.3 | 9.6 | 0.00 | 0.00 | 0.00 | 61 | 1010.9 |
| 20260507025535 | 77 | 30 | 3.5 | 7.8 | 0.00 | 0.00 | 0.00 | 60 | 1010.9 |
| 20260507025035 | 77 | 53 | 2.6 | 5.2 | 0.00 | 0.00 | 0.00 | 59 | 1011.0 |
| 20260507024554 | 78 | 52 | 1.7 | 5.2 | 0.00 | 0.00 | 0.00 | 59 | 1011.0 |
| 20260507024034 | 78 | 45 | 3.5 | 7.8 | 0.00 | 0.00 | 0.00 | 58 | 1010.9 |
| 20260507023538 | 78 | 29 | 2.6 | 8.7 | 0.00 | 0.00 | 0.00 | 57 | 1011.0 |
| 20260507023049 | 78 | 47 | 2.6 | 8.7 | 0.00 | 0.00 | 0.00 | 56 | 1010.9 |
| 20260507022535 | 78 | 28 | 4.3 | 8.7 | 0.00 | 0.00 | 0.00 | 56 | 1010.8 |
| 20260507022035 | 79 | 49 | 2.6 | 6.1 | 0.00 | 0.00 | 0.00 | 55 | 1010.8 |
| 20260507021557 | 79 | 38 | 2.6 | 6.1 | 0.00 | 0.00 | 0.00 | 54 | 1010.8 |
| 20260507021039 | 79 | 49 | 2.6 | 4.3 | 0.00 | 0.00 | 0.00 | 54 | 1010.7 |
| 20260507020534 | 80 | 65 | 1.7 | 4.3 | 0.00 | 0.00 | 0.00 | 53 | 1010.7 |
| 20260507020051 | 80 | 53 | 1.7 | 4.3 | 0.00 | 0.00 | 0.00 | 52 | 1010.6 |
| 20260507015534 | 80 | 51 | 2.6 | 4.3 | 0.00 | 0.00 | 0.00 | 52 | 1010.5 |
| 20260507015039 | 80 | 55 | 1.7 | 4.3 | 0.00 | 0.00 | 0.00 | 51 | 1010.4 |
| 20260507014552 | 81 | 55 | 2.6 | 4.3 | 0.00 | 0.00 | 0.00 | 50 | 1010.3 |
| 20260507014036 | 81 | 31 | 1.7 | 6.1 | 0.00 | 0.00 | 0.00 | 50 | 1010.4 |
| 20260507013535 | 81 | 53 | 2.6 | 6.1 | 0.00 | 0.00 | 0.00 | 49 | 1010.3 |
| 20260507013045 | 81 | 78 | 2.6 | 6.1 | 0.00 | 0.00 | 0.00 | 49 | 1010.2 |
| 20260507012535 | 82 | 63 | 2.6 | 6.1 | 0.00 | 0.00 | 0.00 | 49 | 1010.2 |
| 20260507012035 | 82 | 51 | 1.7 | 4.3 | 0.00 | 0.00 | 0.00 | 49 | 1010.0 |
| 20260507011545 | 82 | 74 | 1.7 | 6.1 | 0.00 | 0.00 | 0.00 | 48 | 1010.0 |
| 20260507011033 | 83 | 72 | 1.7 | 6.1 | 0.00 | 0.00 | 0.00 | 47 | 1009.9 |
| 20260507010535 | 83 | 55 | 3.5 | 8.7 | 0.00 | 0.00 | 0.00 | 47 | 1009.8 |
| 20260507010052 | 83 | 79 | 2.6 | 8.7 | 0.00 | 0.00 | 0.00 | 47 | 1009.8 |
| 20260507005534 | 84 | 56 | 3.5 | 8.7 | 0.00 | 0.00 | 0.00 | 46 | 1009.7 |
| 20260507005034 | 84 | 55 | 3.5 | 10.4 | 0.00 | 0.00 | 0.00 | 45 | 1009.6 |
| 20260507004553 | 84 | 55 | 5.2 | 12.2 | 0.00 | 0.00 | 0.00 | 45 | 1009.6 |
| 20260507004035 | 84 | 70 | 7.0 | 12.2 | 0.00 | 0.00 | 0.00 | 45 | 1009.5 |
| 20260507003535 | 85 | 96 | 5.2 | 10.4 | 0.00 | 0.00 | 0.00 | 45 | 1009.4 |
| 20260507003051 | 85 | 79 | 7.0 | 10.4 | 0.00 | 0.00 | 0.00 | 44 | 1009.4 |
| 20260507002535 | 85 | 61 | 6.1 | 10.4 | 0.00 | 0.00 | 0.00 | 44 | 1009.4 |
| 20260507002035 | 85 | 92 | 5.2 | 10.4 | 0.00 | 0.00 | 0.00 | 42 | 1009.3 |
| 20260507001605 | 85 | 78 | 5.2 | 12.2 | 0.00 | 0.00 | 0.00 | 41 | 1009.3 |
| 20260507001038 | 85 | 86 | 7.0 | 12.2 | 0.00 | 0.00 | 0.00 | 41 | 1009.1 |
| 20260507000535 | 85 | 50 | 6.1 | 13.0 | 0.00 | 0.00 | 0.00 | 42 | 1009.1 |
| 20260507000056 | 85 | 64 | 6.1 | 13.0 | 0.00 | 0.00 | 0.00 | 42 | 1009.0 |
| 20260506235535 | 85 | 58 | 6.1 | 13.0 | 0.00 | 0.00 | 0.00 | 41 | 1009.0 |
| 20260506235038 | 85 | 57 | 7.0 | 12.2 | 0.00 | 0.00 | 0.00 | 42 | 1009.0 |
| 20260506234556 | 85 | 81 | 7.0 | 12.2 | 0.00 | 0.00 | 0.00 | 43 | 1008.9 |
| 20260506234035 | 85 | 79 | 5.2 | 12.2 | 0.00 | 0.00 | 0.00 | 44 | 1009.0 |
| 20260506233533 | 86 | 49 | 7.0 | 12.2 | 0.00 | 0.00 | 0.00 | 44 | 1008.9 |
| 20260506233044 | 86 | 59 | 7.0 | 11.3 | 0.00 | 0.00 | 0.00 | 45 | 1008.8 |
| 20260506232535 | 86 | 62 | 6.1 | 11.3 | 0.00 | 0.00 | 0.00 | 45 | 1008.7 |
| 20260506232034 | 86 | 72 | 6.1 | 12.2 | 0.00 | 0.00 | 0.00 | 44 | 1008.7 |
| 20260506231555 | 86 | 69 | 8.7 | 13.0 | 0.00 | 0.00 | 0.00 | 42 | 1008.8 |
| 20260506231034 | 86 | 63 | 7.0 | 14.8 | 0.00 | 0.00 | 0.00 | 45 | 1008.8 |
| 20260506230534 | 86 | 44 | 7.0 | 14.8 | 0.00 | 0.00 | 0.00 | 45 | 1008.7 |
| 20260506230048 | 86 | 77 | 8.7 | 14.8 | 0.00 | 0.00 | 0.00 | 44 | 1008.6 |
| 20260506225535 | 86 | 73 | 7.0 | 15.6 | 0.00 | 0.00 | 0.00 | 45 | 1008.5 |
| 20260506225036 | 86 | 78 | 7.0 | 15.6 | 0.00 | 0.00 | 0.00 | 43 | 1008.3 |
| 20260506224603 | 86 | 56 | 7.8 | 12.2 | 0.00 | 0.00 | 0.00 | 44 | 1008.2 |
| 20260506224035 | 86 | 57 | 6.1 | 13.9 | 0.00 | 0.00 | 0.00 | 43 | 1008.5 |
| 20260506223534 | 86 | 81 | 7.8 | 14.8 | 0.00 | 0.00 | 0.00 | 44 | 1008.6 |
| 20260506223057 | 86 | 24 | 9.6 | 14.8 | 0.00 | 0.00 | 0.00 | 44 | 1008.5 |
| 20260506222536 | 87 | 32 | 8.7 | 13.9 | 0.00 | 0.00 | 0.00 | 45 | 1008.6 |
| 20260506222036 | 87 | 34 | 8.7 | 13.0 | 0.00 | 0.00 | 0.00 | 45 | 1008.6 |
| 20260506221552 | 87 | 62 | 7.8 | 15.6 | 0.00 | 0.00 | 0.00 | 42 | 1008.7 |
| 20260506221035 | 87 | 81 | 7.8 | 15.6 | 0.00 | 0.00 | 0.00 | 44 | 1008.7 |
| 20260506220535 | 87 | 65 | 7.8 | 13.9 | 0.00 | 0.00 | 0.00 | 43 | 1008.6 |
| 20260506220059 | 87 | 24 | 7.8 | 16.5 | 0.00 | 0.00 | 0.00 | 43 | 1008.6 |
| 20260506215535 | 87 | 60 | 7.0 | 16.5 | 0.00 | 0.00 | 0.00 | 43 | 1008.5 |
| 20260506215035 | 87 | 5 | 8.7 | 14.8 | 0.00 | 0.00 | 0.00 | 44 | 1008.2 |
| 20260506214549 | 87 | 80 | 7.0 | 14.8 | 0.00 | 0.00 | 0.00 | 49 | 1008.3 |
| 20260506214036 | 87 | 60 | 8.7 | 14.8 | 0.00 | 0.00 | 0.00 | 46 | 1008.5 |
| 20260506213535 | 87 | 40 | 8.7 | 14.8 | 0.00 | 0.00 | 0.00 | 45 | 1008.7 |
| 20260506213045 | 87 | 63 | 5.2 | 13.0 | 0.00 | 0.00 | 0.00 | 51 | 1009.0 |
| 20260506212536 | 87 | 76 | 7.8 | 15.6 | 0.00 | 0.00 | 0.00 | 53 | 1008.7 |
| 20260506212035 | 86 | 19 | 8.7 | 15.6 | 0.00 | 0.00 | 0.00 | 48 | 1008.7 |
| 20260506211554 | 87 | 50 | 6.1 | 14.8 | 0.00 | 0.00 | 0.00 | 52 | 1009.1 |
| 20260506211037 | 86 | 56 | 7.0 | 15.6 | 0.00 | 0.00 | 0.00 | 51 | 1009.0 |
| 20260506210535 | 86 | 30 | 8.7 | 15.6 | 0.00 | 0.00 | 0.00 | 48 | 1008.9 |
| 20260506210046 | 86 | 67 | 5.2 | 11.3 | 0.00 | 0.00 | 0.00 | 48 | 1009.1 |
| 20260506205538 | 87 | 28 | 6.1 | 12.2 | 0.00 | 0.00 | 0.00 | 47 | 1009.1 |
| 20260506205037 | 87 | 360 | 4.3 | 12.2 | 0.00 | 0.00 | 0.00 | 48 | 1009.1 |
| 20260506204542 | 87 | 31 | 5.2 | 13.9 | 0.00 | 0.00 | 0.00 | 45 | 1009.2 |
| 20260506204036 | 88 | 13 | 7.0 | 13.9 | 0.00 | 0.00 | 0.00 | 46 | 1009.1 |
| 20260506203535 | 88 | 27 | 4.3 | 10.4 | 0.00 | 0.00 | 0.00 | 48 | 1009.3 |
| 20260506203041 | 87 | 30 | 5.2 | 12.2 | 0.00 | 0.00 | 0.00 | 47 | 1009.2 |
| 20260506202537 | 86 | 22 | 6.1 | 12.2 | 0.00 | 0.00 | 0.00 | 47 | 1009.3 |
| 20260506202033 | 86 | 352 | 7.0 | 12.2 | 0.00 | 0.00 | 0.00 | 48 | 1009.3 |
| 20260506201546 | 85 | 57 | 4.3 | 10.4 | 0.00 | 0.00 | 0.00 | 51 | 1009.3 |
| 20260506201034 | 85 | 36 | 3.5 | 9.6 | 0.00 | 0.00 | 0.00 | 53 | 1009.5 |
| 20260506200534 | 84 | 15 | 6.1 | 9.6 | 0.00 | 0.00 | 0.00 | 53 | 1009.3 |
| 20260506200045 | 84 | 38 | 6.1 | 9.6 | 0.00 | 0.00 | 0.00 | 53 | 1009.3 |
| 20260506195536 | 85 | 5 | 5.2 | 9.6 | 0.00 | 0.00 | 0.00 | 58 | 1009.3 |
| 20260506195035 | 85 | 360 | 3.5 | 9.6 | 0.00 | 0.00 | 0.00 | 60 | 1009.6 |
| 20260506194546 | 84 | 346 | 5.2 | 9.6 | 0.00 | 0.00 | 0.00 | 61 | 1009.6 |
| 20260506194033 | 84 | 348 | 4.3 | 9.6 | 0.00 | 0.00 | 0.00 | 62 | 1009.7 |
| 20260506193534 | 85 | 54 | 3.5 | 9.6 | 0.00 | 0.00 | 0.00 | 63 | 1009.6 |
| 20260506193052 | 84 | 351 | 5.2 | 9.6 | 0.00 | 0.00 | 0.00 | 64 | 1009.7 |
| 20260506192534 | 84 | 32 | 5.2 | 9.6 | 0.00 | 0.00 | 0.00 | 64 | 1009.8 |
| 20260506192037 | 84 | 19 | 5.2 | 9.6 | 0.00 | 0.00 | 0.00 | 65 | 1009.8 |
| 20260506191547 | 84 | 14 | 4.3 | 10.4 | 0.00 | 0.00 | 0.00 | 66 | 1009.8 |
| 20260506191033 | 84 | 28 | 6.1 | 10.4 | 0.00 | 0.00 | 0.00 | 67 | 1009.9 |
| 20260506190534 | 84 | 15 | 3.5 | 9.6 | 0.00 | 0.00 | 0.00 | 67 | 1010.0 |
| 20260506190049 | 84 | 360 | 4.3 | 9.6 | 0.00 | 0.00 | 0.00 | 67 | 1010.0 |
| 20260506185535 | 84 | 50 | 4.3 | 8.7 | 0.00 | 0.00 | 0.00 | 68 | 1010.1 |
| 20260506185035 | 84 | 5 | 3.5 | 9.6 | 0.00 | 0.00 | 0.00 | 68 | 1010.2 |
| 20260506184546 | 84 | 38 | 4.3 | 9.6 | 0.00 | 0.00 | 0.00 | 68 | 1010.3 |
| 20260506184035 | 84 | 9 | 4.3 | 9.6 | 0.00 | 0.00 | 0.00 | 69 | 1010.3 |
| 20260506183538 | 84 | 42 | 4.3 | 8.7 | 0.00 | 0.00 | 0.00 | 68 | 1010.2 |
| 20260506183045 | 84 | 55 | 1.7 | 8.7 | 0.00 | 0.00 | 0.00 | 68 | 1010.3 |
| 20260506182537 | 84 | 360 | 4.3 | 9.6 | 0.00 | 0.00 | 0.00 | 67 | 1010.4 |
| 20260506182037 | 84 | 61 | 4.3 | 9.6 | 0.00 | 0.00 | 0.00 | 68 | 1010.3 |
| 20260506181608 | 84 | 351 | 3.5 | 9.6 | 0.00 | 0.00 | 0.00 | 67 | 1010.6 |
| 20260506181038 | 84 | 326 | 5.2 | 10.4 | 0.00 | 0.00 | 0.00 | 67 | 1010.7 |
| 20260506180537 | 84 | 352 | 6.1 | 11.3 | 0.00 | 0.00 | 0.00 | 67 | 1010.6 |
| 20260506180054 | 84 | 35 | 4.3 | 11.3 | 0.00 | 0.00 | 0.00 | 68 | 1010.7 |
| 20260506175536 | 84 | 46 | 6.1 | 11.3 | 0.00 | 0.00 | 0.00 | 68 | 1010.8 |
| 20260506175036 | 84 | 341 | 7.0 | 14.8 | 0.00 | 0.00 | 0.00 | 66 | 1010.9 |
| 20260506174553 | 83 | 46 | 7.0 | 14.8 | 0.00 | 0.00 | 0.00 | 68 | 1010.8 |
| 20260506174039 | 83 | 31 | 7.8 | 12.2 | 0.00 | 0.00 | 0.00 | 67 | 1010.9 |
| 20260506173536 | 82 | 17 | 7.8 | 12.2 | 0.00 | 0.00 | 0.00 | 69 | 1011.0 |
| 20260506173121 | 82 | 72 | 7.0 | 13.0 | 0.00 | 0.00 | 0.00 | 70 | 1010.9 |
| 20260506172536 | 82 | 57 | 7.0 | 13.0 | 0.00 | 0.00 | 0.00 | 70 | 1011.1 |
| 20260506172036 | 81 | 13 | 5.2 | 13.0 | 0.00 | 0.00 | 0.00 | 74 | 1011.1 |
| 20260506171555 | 79 | 35 | 5.2 | 14.8 | 0.00 | 0.00 | 0.00 | 75 | 1011.0 |
| 20260506171036 | 78 | 48 | 9.6 | 14.8 | 0.00 | 0.00 | 0.00 | 76 | 1011.0 |
| 20260506170536 | 78 | 47 | 7.8 | 15.6 | 0.00 | 0.00 | 0.00 | 79 | 1011.0 |
| 20260506170059 | 77 | 51 | 10.4 | 15.6 | 0.00 | 0.00 | 0.00 | 80 | 1010.9 |
| 20260506165537 | 77 | 12 | 7.8 | 13.0 | 0.00 | 0.00 | 0.00 | 83 | 1010.8 |
| 20260506165037 | 76 | 46 | 7.8 | 14.8 | 0.00 | 0.00 | 0.00 | 84 | 1010.7 |
| 20260506164550 | 76 | 34 | 8.7 | 14.8 | 0.00 | 0.00 | 0.00 | 84 | 1010.8 |
| 20260506164036 | 76 | 17 | 7.0 | 16.5 | 0.00 | 0.00 | 0.00 | 83 | 1010.9 |
| 20260506163539 | 77 | 352 | 7.8 | 16.5 | 0.00 | 0.00 | 0.00 | 82 | 1010.8 |
| 20260506163048 | 78 | 352 | 11.3 | 16.5 | 0.00 | 0.00 | 0.00 | 80 | 1010.7 |
| 20260506162537 | 80 | 309 | 1.7 | 7.0 | 0.00 | 0.00 | 0.00 | 82 | 1010.6 |
| 20260506162036 | 80 | 57 | 2.6 | 6.1 | 0.00 | 0.00 | 0.00 | 82 | 1010.4 |
| 20260506161550 | 80 | 25 | 0.9 | 5.2 | 0.00 | 0.00 | 0.00 | 83 | 1010.3 |
| 20260506161037 | 80 | 5 | 1.7 | 7.8 | 0.00 | 0.00 | 0.00 | 84 | 1010.3 |
| 20260506160536 | 80 | 67 | 2.6 | 7.8 | 0.00 | 0.00 | 0.00 | 84 | 1010.2 |